Regional Weather Roundup
Issued by NWS

Home | Current Version | Previous Version | Text Only | Print | Product List | Glossary Off
Versions: 1 2 3 4 5 6 7 8 9 10 11 12 13 14 15 16 17 18 19 20 21 22 23 24 25 26 27 28 29 30 31 32 33 34 35 36 37 38 39 40 41 42 43 44 45 46 47 48 49 50

056
ASUS45 KCYS 282210
RWRWY

WYOMING REGIONAL WEATHER ROUNDUP
NATIONAL WEATHER SERVICE CHEYENNE WY
400 PM MDT THU APR 28 2016

NOTE:  "FAIR" INDICATES FEW OR NO CLOUDS BELOW 12,000 FEET
WITH NO SIGNIFICANT WEATHER AND/OR OBSTRUCTIONS TO VISIBILITY.

WYZ001-282300-
YELLOWSTONE NATIONAL PARK

CITY           SKY/WX    TMP DP  RH WIND       PRES   REMARKS
LK YELLOWSTONE   N/A     38  23  55 VRB3      29.90S
W YELLOWSTONE  NOT AVBL

$$
WYZ002>013-054>058-071-098>099-282300-
NORTHERN WYOMING

CITY           SKY/WX    TMP DP  RH WIND       PRES   REMARKS
JACKSON        NOT AVBL
CODY           CLOUDY    37  28  70 N10       30.01S WCI  30
GREYBULL       CLOUDY    45  29  53 CALM      30.00S
WORLAND        CLOUDY    42  30  62 CALM      30.00S
SHERIDAN       CLOUDY    37  33  85 CALM      30.06S
BUFFALO        CLOUDY    37  29  72 N8        30.03F WCI  31
GILLETTE       CLOUDY    38  31  76 NE7       30.03S WCI  33
HULETT         CLOUDY    37  32  81 NE7       30.05S WCI  32
NEWCASTLE      CLOUDY    41  28  60 CALM      30.02S

$$
WYZ014>020-022>026-101>103-282300-
CENTRAL WYOMING

CITY           SKY/WX    TMP DP  RH WIND       PRES   REMARKS
BIG PINEY      PTSUNNY   42  27  55 S16       29.88S
PINEDALE       LGT RAIN  37  32  81 NE8       29.88R WCI  31
DUBOIS         CLOUDY    32  27  80 SE13G18   29.93S WCI  22
LANDER         CLOUDY    36  30  79 W9        29.96S WCI  29
RIVERTON       CLOUDY    39  27  62 NE9       29.99R WCI  33
CASPER         CLOUDY    34  27  75 E9        30.00S WCI  27
DOUGLAS        CLOUDY    37  27  67 N7        30.03R WCI  32

$$
WYZ021-027>030-104>119-282300-
SOUTHERN WYOMING

CITY           SKY/WX    TMP DP  RH WIND       PRES   REMARKS
EVANSTON       CLOUDY    37  27  67 E24       29.84S WCI  26
KEMMERER       LGT SNOW  34  32  93 E17G23    29.89S WCI  23
FORT BRIDGER   LGT SNOW  34  34 100 E15G21    29.91R WCI  24
ROCK SPRINGS   LGT SNOW  33  28  81 NE25G32   29.90S WCI  20
DIXON          CLOUDY    45  36  70 CALM      29.85R
RAWLINS        FOG       32  29  88 E21G31    29.91S VSB 1/4 WCI  20
SARATOGA       CLOUDY    34  32  93 N5        29.88S WCI  30
LARAMIE        CLOUDY    31  26  82 SE7       29.91R WCI  24
CHEYENNE       CLOUDY    36  31  82 SE9       29.97F WCI  29
TORRINGTON     CLOUDY    43  28  55 E9        30.00R
PINE BLUFFS    DRIZZLE   36  32  87 E7        30.01R WCI  30

$$




USA.gov is the U.S. government's official web portal to all federal, state and local government web resources and services.